Theta_e
298 297 296 296 297 296 295 294 294 294 294 294 294 294 294 294 294 294 294 294 294 294 294 294 294 293 294 294 294 294 294 294 294 294 294 294 293 293 293 293 292 292 292 292 292 292 292 291 291 291 291 291 291 291 291 292 292 292 293 293 294 294 294 295 295 296 296 296 296 296 296 296 296 296 296 296 296 296 296 296 296 296 296 296 297 297
297 297 296 296 296 296 295 294 294 295 295 294 293 294 294 294 294 294 294 294 294 294 294 294 294 293 293 293 292 293 293 293 293 293 293 293 293 292 292 292 292 292 291 291 291 291 291 291 290 290 290 290 290 290 290 290 290 291 291 292 292 293 293 293 294 294 294 295 295 295 295 295 295 295 295 295 295 295 296 296 296 296 296 296 296 296
297 296 296 295 295 295 295 294 294 294 294 294 293 294 294 294 294 294 293 293 293 293 293 293 293 293 292 292 291 291 292 292 292 292 292 292 292 292 292 291 291 291 291 290 290 290 290 290 289 289 289 289 289 288 288 288 289 289 289 290 291 291 292 292 292 293 293 293 293 293 293 293 294 294 294 294 294 295 295 295 295 295 295 295 295 295
297 296 296 295 295 294 294 294 294 294 294 293 294 294 294 294 293 293 293 293 293 292 292 292 292 291 291 291 290 290 290 290 291 291 291 291 291 291 291 290 290 290 290 289 289 289 289 288 288 288 288 288 287 287 287 287 287 287 287 288 289 290 291 291 292 292 292 292 292 292 292 292 293 293 293 293 293 294 294 294 294 294 294 294 294 294
296 296 295 294 294 294 294 294 294 293 293 293 293 293 293 293 293 293 293 292 292 292 291 291 291 290 290 290 289 289 289 289 289 289 289 289 289 289 289 289 289 289 289 288 288 288 288 287 287 287 287 287 287 286 286 286 286 286 286 286 287 288 289 290 291 291 291 291 291 291 292 292 292 292 292 292 292 293 293 293 293 293 293 293 293 294
295 295 294 294 293 293 294 294 294 293 293 293 293 293 293 293 293 292 292 292 292 291 291 290 290 290 289 289 289 288 289 289 289 288 288 288 288 288 288 288 288 288 288 288 287 287 287 287 287 287 287 287 287 287 286 286 286 286 285 285 285 286 287 288 289 290 290 291 291 291 291 291 291 291 291 291 292 292 292 292 292 292 292 292 292 293
295 294 294 294 293 293 293 293 293 293 293 293 293 293 292 292 292 292 292 291 291 291 291 290 290 289 289 289 288 288 288 288 288 288 288 288 288 288 288 288 288 287 287 287 287 287 287 287 287 287 287 287 287 287 286 286 286 286 285 285 285 285 286 287 288 289 290 290 290 290 290 290 290 291 291 291 291 291 291 291 291 291 292 292 292 292
294 294 294 293 293 293 293 293 293 293 293 293 293 293 293 292 292 291 291 291 291 290 290 290 289 289 289 288 288 288 288 288 288 288 288 288 288 288 287 287 287 286 286 286 286 286 287 287 287 287 287 287 287 286 285 285 285 285 285 285 285 285 286 287 287 288 289 289 290 290 290 290 290 290 290 290 291 291 291 291 291 291 291 291 292 292
294 294 294 293 293 293 293 292 293 293 293 293 293 292 292 292 292 291 291 291 290 290 290 289 289 289 289 288 288 288 288 288 288 287 287 287 287 287 287 286 286 286 286 286 286 286 286 287 287 287 287 286 285 285 284 284 284 284 285 285 285 285 286 286 287 288 288 289 289 290 290 290 290 290 290 290 290 290 290 290 290 290 291 291 291 292
294 294 294 293 293 293 292 292 292 292 292 292 292 292 292 291 291 291 291 291 290 289 289 289 289 289 288 288 288 288 288 287 287 287 287 286 286 286 286 286 286 286 286 286 286 286 285 286 286 286 286 285 284 284 283 283 283 283 284 284 284 285 285 286 286 287 287 288 288 289 289 289 289 290 290 290 290 290 290 290 290 290 290 291 291 291
294 294 294 293 293 293 292 292 292 292 291 291 291 291 291 291 291 291 291 290 290 289 288 288 288 288 288 288 288 287 287 287 287 287 286 286 286 285 286 286 286 286 286 286 285 284 284 285 285 285 285 284 284 284 283 283 283 283 283 283 283 284 284 284 284 285 286 287 287 288 288 288 289 289 289 289 289 289 290 290 290 290 290 291 291 291
294 293 293 293 293 292 292 291 291 291 291 291 291 290 290 290 290 290 290 289 289 289 288 288 288 288 287 287 287 287 287 287 287 287 286 286 285 285 285 285 285 285 285 285 284 284 283 284 285 285 284 284 284 284 284 284 284 284 284 284 285 285 285 285 285 285 286 286 287 287 287 288 288 288 289 289 289 289 289 290 290 290 290 291 291 291
293 293 293 292 292 292 292 291 291 291 291 291 290 290 289 289 289 289 289 288 288 288 288 288 288 287 287 287 287 287 287 287 287 287 286 285 284 284 284 284 284 285 285 284 284 284 283 284 284 284 284 284 284 284 284 284 284 284 284 285 285 286 286 286 287 287 287 288 288 288 288 288 288 288 289 289 289 289 289 290 290 290 290 290 291 291
293 293 292 292 292 292 291 291 291 291 290 290 289 289 288 288 288 288 288 288 288 288 287 287 287 287 287 287 287 287 287 287 287 286 286 285 284 283 283 284 284 284 284 284 284 284 284 284 284 284 284 284 284 284 284 284 284 284 284 284 285 285 286 287 287 287 288 288 288 288 288 288 288 289 289 289 289 289 289 290 290 290 290 290 290 291
292 292 292 292 292 291 291 291 290 290 289 289 288 288 288 288 287 287 287 287 287 287 287 287 286 286 286 287 287 287 287 286 286 285 285 284 284 283 283 284 284 284 284 284 284 284 284 284 284 284 284 284 284 284 284 284 284 284 284 284 284 285 285 286 286 287 287 288 288 288 288 288 288 289 289 289 289 289 289 290 290 290 290 290 290 290
292 292 292 292 291 291 290 290 289 289 289 288 288 288 287 287 287 287 287 287 287 286 286 286 286 286 286 287 286 286 286 286 285 285 285 284 284 283 283 284 284 284 284 284 284 284 284 284 284 284 284 284 284 284 285 285 284 284 284 284 284 284 284 285 285 286 287 287 287 288 288 288 288 288 289 289 289 289 289 289 289 290 290 290 290 290
291 291 291 291 291 290 289 289 289 288 288 288 287 287 287 287 287 286 286 286 286 286 286 286 286 286 286 286 286 285 285 285 285 284 284 284 283 283 283 284 284 284 284 284 284 284 284 284 284 284 284 284 284 285 285 285 285 284 284 284 284 284 284 284 285 285 286 286 287 287 288 288 288 288 288 289 289 289 289 289 289 289 290 290 290 290
290 290 290 290 290 289 289 288 288 288 287 287 287 287 286 286 286 286 286 286 286 286 286 286 286 285 285 286 285 285 285 285 284 284 284 284 283 283 283 284 284 284 284 284 284 284 284 284 284 284 284 284 285 285 285 285 285 285 284 284 284 284 284 285 285 285 285 286 286 287 287 288 288 288 288 288 289 289 289 289 289 289 290 290 290 290
289 289 289 289 289 288 288 288 287 287 287 287 287 287 286 286 286 286 286 286 286 286 286 285 285 285 285 285 285 285 285 285 284 284 284 284 283 283 283 284 284 284 284 284 284 284 284 284 284 284 284 284 284 285 285 285 285 284 284 284 284 284 284 285 285 285 285 286 286 287 287 288 288 288 288 288 288 289 289 289 289 289 289 290 290 290
288 288 288 288 288 288 288 287 287 287 287 287 287 286 286 286 286 286 286 286 286 286 286 285 285 285 285 285 285 285 285 285 284 284 284 283 283 283 284 284 284 284 284 284 284 284 284 283 283 283 283 283 284 284 285 285 284 284 284 284 284 284 284 285 285 285 285 286 286 286 287 287 288 288 288 288 288 288 289 289 289 289 289 290 290 290
288 288 288 288 288 288 287 287 287 287 287 287 286 286 286 286 285 285 285 285 285 285 285 285 285 285 285 285 285 285 284 284 284 284 284 284 284 283 283 284 284 284 284 284 284 284 284 283 283 283 283 283 284 284 285 284 284 284 284 284 285 286 286 286 286 286 286 286 286 286 286 287 287 288 288 288 288 288 289 289 289 289 289 289 289 289
288 288 287 287 287 287 287 287 287 287 287 286 286 286 285 285 285 285 285 285 285 285 285 285 285 285 285 284 284 284 284 284 284 284 284 284 284 283 283 283 283 284 284 284 284 284 284 283 283 283 283 283 284 284 284 284 284 284 284 285 285 286 286 286 287 287 287 287 287 287 287 288 288 288 288 288 288 288 289 289 289 289 289 289 289 289
287 287 287 287 287 287 287 287 287 286 286 286 286 285 285 285 285 284 284 284 284 284 284 284 284 284 284 284 284 284 284 284 284 284 284 283 283 283 283 283 283 283 283 284 284 284 284 284 284 283 283 283 284 284 284 284 283 283 284 285 285 285 286 286 287 287 287 287 288 288 288 288 288 288 288 288 288 288 288 289 289 289 289 289 289 289
287 287 287 287 287 287 287 286 286 286 286 286 285 285 285 284 284 284 284 284 284 284 284 284 284 284 284 284 284 285 285 285 284 284 284 284 283 283 283 283 283 283 283 284 283 283 283 284 284 284 284 283 284 284 284 284 283 283 284 284 284 285 285 285 286 286 286 287 287 287 287 287 288 288 288 288 288 288 288 288 288 288 288 288 288 288
287 287 287 287 286 286 286 286 286 285 285 285 285 285 284 284 284 284 284 284 284 284 284 284 284 284 284 285 285 285 285 285 285 285 284 284 283 283 283 283 283 283 283 283 283 283 284 284 284 284 284 284 284 284 284 284 284 284 284 284 284 284 284 284 284 284 285 285 286 286 286 287 287 287 288 288 288 288 288 288 288 288 288 288 288 288
286 286 286 286 286 286 286 285 285 285 285 285 284 284 284 283 283 283 284 284 284 284 284 284 284 284 284 285 285 285 285 285 285 284 284 284 283 283 283 283 283 283 283 283 283 283 284 284 284 284 284 284 284 284 283 284 284 284 284 284 284 284 284 284 284 284 284 284 284 285 285 286 286 287 287 287 287 287 288 288 288 288 288 288 288 288
286 286 286 286 286 285 285 285 285 285 284 284 284 283 283 283 283 283 283 283 283 284 284 284 284 284 285 285 285 285 285 284 284 284 284 283 283 283 283 283 283 283 283 283 283 284 284 284 285 285 284 284 284 283 283 283 284 284 284 284 284 284 285 285 284 284 284 284 284 284 284 285 285 286 286 286 287 287 287 287 287 287 287 287 287 287
285 285 285 285 285 285 285 284 284 284 283 283 283 284 284 283 283 283 283 283 283 284 284 284 284 284 284 284 284 284 284 284 284 284 284 283 283 283 283 283 283 283 283 283 283 284 284 284 284 284 284 284 283 283 283 283 283 283 284 284 284 284 284 284 284 284 284 284 284 284 284 284 284 285 285 286 286 286 286 287 287 287 287 287 287 287
284 284 284 284 284 284 284 283 283 283 283 283 283 284 284 283 283 283 282 282 283 283 284 284 284 284 284 284 284 284 284 284 284 284 284 283 283 283 283 283 283 283 283 282 283 284 284 284 284 284 284 283 283 283 283 283 283 283 283 283 283 283 284 284 284 284 284 284 284 284 284 284 284 284 284 285 285 286 286 286 286 286 286 286 286 286
284 284 284 284 284 284 283 283 283 283 283 282 283 283 283 283 282 282 282 282 282 283 283 283 284 284 284 284 283 283 284 284 284 284 284 284 283 283 283 283 283 282 282 282 282 282 283 284 284 284 283 283 283 283 283 283 283 283 283 283 283 283 283 283 283 284 284 284 284 284 284 284 284 284 284 285 285 285 286 286 286 286 286 286 286 285
284 284 284 284 284 283 283 283 283 282 282 282 282 282 282 281 281 281 281 281 282 283 283 283 283 283 283 283 282 281 283 284 284 284 284 283 283 283 283 283 282 282 282 282 281 281 280 283 284 284 283 283 283 283 283 283 283 283 283 283 283 283 283 283 283 283 283 283 284 284 284 284 285 285 285 285 285 285 285 286 286 286 286 285 285 285
284 284 284 284 283 283 283 283 282 282 282 282 281 281 280 280 280 280 280 280 281 282 283 283 283 283 283 283 282 282 283 284 284 283 283 283 283 283 282 282 282 282 282 281 281 281 279 281 283 283 283 283 282 282 283 283 283 283 283 283 283 283 283 283 283 283 283 283 283 283 284 284 284 284 285 285 285 285 285 285 285 285 285 285 285 285
284 284 284 284 283 283 283 282 282 282 282 282 281 281 280 280 280 280 280 280 281 281 282 282 282 282 283 283 283 283 283 283 283 283 283 283 283 282 282 282 282 282 282 281 281 281 281 281 281 281 281 281 281 282 282 282 283 283 283 283 283 283 283 283 283 282 282 283 283 283 283 283 283 284 284 284 285 285 285 285 285 285 285 285 285 285
284 284 284 283 283 283 282 282 282 282 282 282 281 281 280 280 280 280 280 280 280 281 282 282 282 282 282 282 283 283 283 283 283 283 283 282 282 282 282 282 282 282 281 281 281 281 281 281 281 281 281 281 281 281 282 282 282 282 282 283 283 283 282 282 282 282 282 282 282 283 283 283 283 283 283 283 284 284 284 285 285 285 285 285 285 285
284 283 283 283 283 282 282 282 282 282 282 281 281 281 280 280 280 280 280 280 280 281 281 281 281 282 282 282 282 282 283 283 283 282 282 282 282 282 282 282 281 281 281 281 281 281 281 280 280 280 280 280 280 281 281 282 282 282 282 282 282 282 282 282 282 282 282 282 282 283 283 283 283 283 283 283 283 284 284 284 285 285 285 285 285 285
283 283 283 282 282 282 282 282 282 282 282 281 281 281 281 281 281 281 281 280 280 280 280 281 281 281 281 282 282 282 282 282 282 282 282 282 282 281 281 281 281 281 281 280 280 280 280 280 280 280 280 280 280 281 281 281 281 281 282 282 282 282 282 282 282 282 282 282 282 283 283 283 283 283 283 283 283 284 284 284 285 285 285 285 285 285
283 283 282 282 282 282 282 282 282 282 282 281 281 281 281 281 281 281 281 281 280 280 280 280 280 281 281 281 281 281 281 281 282 282 282 282 281 281 281 281 281 281 280 280 280 280 280 280 280 280 280 280 280 280 281 281 281 281 281 281 281 281 282 282 282 282 282 282 282 282 282 283 283 283 283 283 283 283 284 284 284 284 284 284 284 285
282 282 282 282 282 282 282 282 282 281 281 281 281 281 281 281 281 281 281 281 281 281 281 280 280 280 280 280 280 280 280 280 280 281 281 281 281 281 281 281 281 281 280 280 279 280 279 279 279 279 280 280 280 280 280 280 280 280 281 281 281 281 281 282 282 282 282 282 282 282 282 282 283 283 283 283 283 283 283 283 283 283 283 283 283 284
282 282 282 282 282 282 282 282 281 281 281 281 281 281 281 281 281 281 281 281 281 281 281 280 280 280 280 280 280 280 280 280 280 280 281 281 281 281 281 280 280 280 280 279 279 279 279 279 279 279 279 280 280 280 280 280 280 280 280 281 281 281 281 281 281 281 282 282 282 282 282 282 282 282 283 283 283 283 283 283 283 283 283 283 283 283
282 282 281 281 281 281 281 281 281 281 281 280 281 281 281 281 281 281 281 281 281 280 280 280 280 280 279 279 279 279 280 280 281 281 281 281 281 281 281 280 280 280 279 279 279 279 279 279 279 279 279 279 280 280 280 280 280 280 280 281 281 281 281 281 281 281 281 282 282 282 282 282 282 282 282 283 283 283 283 283 283 283 283 283 283 283
281 281 281 281 281 281 281 281 281 281 280 280 281 281 281 281 281 281 281 280 280 280 280 280 279 279 279 279 279 280 280 281 281 281 281 281 281 281 281 280 280 280 279 279 279 279 279 279 279 279 279 279 279 280 280 280 280 280 281 281 281 281 281 281 281 281 281 281 282 282 282 282 282 282 282 282 282 282 282 282 282 282 283 283 283 283
281 281 281 281 281 281 280 280 280 280 280 280 280 280 281 281 281 280 280 280 280 280 280 279 279 279 279 280 280 280 281 281 282 282 282 282 281 281 281 281 280 280 279 279 278 278 278 279 279 279 279 279 280 280 280 280 280 280 280 280 280 281 281 281 281 281 281 281 281 281 281 281 282 282 282 282 282 282 282 282 282 282 282 283 283 283
280 280 280 280 280 280 280 280 280 280 280 280 280 280 280 280 280 280 280 280 280 279 279 279 279 279 280 280 280 281 281 281 281 282 282 282 282 281 281 281 280 280 279 279 278 278 278 279 279 279 279 279 280 280 280 280 280 280 280 280 280 281 281 281 281 281 281 281 281 281 281 281 281 281 281 281 281 281 281 282 282 282 282 282 282 282
279 279 280 280 280 280 280 280 280 280 280 280 279 279 279 280 280 280 280 280 280 279 279 279 279 280 280 280 280 281 281 281 281 281 281 282 281 281 281 281 280 280 279 279 278 278 278 279 279 279 279 280 280 280 280 280 280 280 280 280 280 281 281 281 281 281 281 281 281 281 281 281 281 281 281 281 281 281 281 281 281 282 282 282 282 282
278 279 279 279 280 280 280 280 280 279 279 279 279 279 279 279 280 280 280 280 279 279 279 279 279 280 280 280 280 280 281 281 282 282 281 281 281 281 280 280 280 279 279 279 279 278 279 279 279 279 279 280 280 280 280 280 280 280 280 280 280 281 281 281 281 281 281 281 281 281 281 281 281 281 281 281 281 281 281 281 281 282 282 282 282 282
278 278 279 279 279 279 279 279 279 278 278 278 278 278 279 279 280 280 280 280 279 279 279 279 279 280 280 280 280 280 280 281 281 281 281 281 280 280 280 280 280 280 279 279 279 279 279 279 279 279 280 280 280 280 280 280 280 280 280 280 280 281 281 281 281 281 281 281 281 281 281 281 281 281 281 281 281 281 281 281 281 282 282 282 282 282
278 278 278 279 278 278 278 278 278 278 278 278 278 279 279 280 280 280 280 280 279 279 279 279 279 279 279 279 279 279 280 281 281 281 281 281 281 280 280 280 280 280 280 280 280 279 279 279 280 280 280 280 280 280 280 280 280 280 280 280 280 281 281 281 281 281 281 281 281 281 281 281 281 281 281 281 281 281 281 282 282 282 282 282 282 282
279 278 278 278 278 278 278 278 278 278 278 278 278 279 279 280 280 280 280 280 279 279 279 279 279 279 279 279 279 279 280 280 281 281 281 281 281 281 280 280 280 280 280 280 280 280 280 280 280 280 280 280 280 280 280 280 280 280 280 281 281 281 281 281 281 281 281 281 281 281 281 281 281 281 282 282 282 282 282 282 282 282 282 282 282 282
279 278 278 278 278 277 277 278 278 278 278 278 279 279 279 280 280 280 280 280 279 279 279 279 279 279 279 279 279 279 279 280 281 281 281 281 281 281 281 280 280 280 280 280 280 280 280 280 280 280 280 280 280 280 280 280 281 281 281 281 281 281 281 281 281 281 281 281 281 281 281 282 282 282 282 282 282 282 282 282 282 282 282 282 282 282
279 278 278 278 277 277 277 277 278 278 278 279 279 279 280 280 280 280 280 279 279 279 279 279 279 279 279 279 279 279 279 280 280 281 281 281 281 281 281 280 280 280 280 280 280 280 280 280 280 280 280 281 281 281 281 281 281 281 281 281 281 281 281 281 281 282 282 282 282 282 282 282 282 282 282 282 282 282 282 282 282 282 282 282 282 282
279 279 278 278 277 277 277 277 278 278 278 279 279 279 280 280 280 279 279 279 279 279 279 279 279 279 279 279 279 279 279 280 280 281 281 281 280 280 281 281 280 280 280 280 280 280 280 280 280 281 281 281 281 281 282 282 282 282 281 282 282 282 282 282 282 282 282 282 282 282 282 282 282 282 282 282 282 282 282 282 282 282 282 282 282 281
Wind_Speed
5 4 2 2 2 2 3 5 5 4 3 1 1 3 3 3 3 4 5 5 4 3 1 1 2 2 2 3 3 3 3 3 3 4 4 4 4 3 3 2 2 2 2 2 2 2 2 2 2 2 2 2 2 2 2 2 2 3 3 4 4 4 4 3 2 2 2 1 1 0 0 1 1 1 2 2 2 3 3 3 3 4 4 4 5 5
5 4 3 2 2 2 3 5 5 4 2 2 3 4 4 4 4 4 5 5 4 3 2 1 0 1 2 3 3 3 3 3 4 4 4 3 3 2 2 1 1 1 2 2 3 3 3 3 4 4 3 3 4 4 3 3 2 2 3 3 3 3 3 2 2 1 1 1 1 1 1 1 2 2 2 2 3 3 3 4 4 4 4 5 5 5
5 5 4 4 3 3 3 5 4 1 2 4 4 5 5 5 5 5 5 4 4 4 3 2 1 1 2 3 3 3 2 2 3 3 3 2 2 1 1 1 1 2 2 3 3 4 4 5 5 6 6 6 6 6 6 5 4 4 3 3 3 3 3 2 2 2 2 2 2 2 2 2 2 2 2 3 3 4 4 4 4 5 5 5 6 6
6 5 5 4 4 4 4 4 1 4 6 7 6 6 6 6 6 6 5 4 4 4 4 3 2 2 2 3 3 3 2 1 1 2 2 1 1 1 1 1 2 3 3 4 5 6 7 7 8 8 9 9 9 9 8 8 7 6 6 5 4 4 3 3 3 3 3 3 3 3 3 3 3 3 3 3 3 3 4 5 5 5 6 6 6 7
7 6 5 4 4 4 5 2 4 7 8 8 7 7 6 6 6 6 6 5 4 4 4 3 2 2 3 3 3 3 2 1 1 0 1 1 2 2 2 3 4 4 5 6 7 8 9 10 10 10 11 11 11 11 10 10 9 8 8 7 6 6 5 4 4 4 4 4 4 4 4 3 3 3 4 4 4 4 4 5 5 6 6 7 7 7
8 7 5 5 4 3 2 4 7 8 8 7 6 5 5 5 5 5 5 4 4 4 4 3 2 2 3 3 3 3 3 3 2 3 3 3 3 3 3 4 5 6 7 8 9 10 10 11 11 11 11 11 11 11 11 10 10 9 9 9 8 7 6 5 5 5 5 4 4 4 4 4 4 4 4 5 5 5 5 5 6 6 7 7 7 7
8 7 6 5 4 3 4 6 7 7 6 4 3 3 2 2 3 3 3 3 3 3 3 2 1 1 2 3 3 3 3 3 3 3 3 3 3 4 5 6 7 8 9 10 10 10 11 10 10 10 10 10 10 10 10 10 10 10 9 9 8 8 7 6 6 5 5 5 5 5 5 5 5 5 5 5 6 6 6 6 6 7 7 7 7 7
9 7 6 6 5 5 6 7 7 6 5 3 3 3 3 3 3 2 2 2 2 2 2 2 2 1 0 1 1 1 1 1 1 2 2 4 5 6 8 9 10 10 10 10 10 10 10 10 9 9 9 9 9 10 10 9 9 9 9 9 8 7 7 6 6 6 6 6 6 5 5 5 5 5 6 6 6 6 6 7 7 7 7 7 7 7
9 8 7 6 5 6 6 6 6 6 6 5 4 4 4 4 4 4 3 2 1 1 2 3 4 3 2 1 1 2 3 4 4 5 6 7 8 10 10 11 11 11 10 10 9 9 9 9 9 8 9 9 10 10 9 9 9 9 8 8 8 7 6 6 6 6 6 6 6 6 6 6 6 6 6 6 6 6 7 7 6 6 6 6 6 6
9 9 8 6 5 5 5 5 5 6 6 5 5 5 4 4 4 4 4 3 2 1 1 3 4 4 3 4 5 6 7 7 7 8 8 9 9 9 10 10 10 9 8 8 9 9 9 9 8 8 9 9 10 9 9 8 7 7 7 7 7 7 7 7 7 7 7 7 7 7 7 7 7 7 7 7 7 7 7 6 6 6 6 5 5 5
9 9 8 7 6 5 5 4 4 4 4 5 4 4 5 4 4 4 4 4 3 2 1 2 3 4 5 6 7 8 9 9 9 9 9 9 9 8 8 7 7 7 7 8 10 10 10 8 7 7 8 9 9 8 7 7 6 6 5 5 5 5 5 6 6 6 7 7 7 7 7 7 7 7 7 7 7 7 6 6 5 5 5 5 5 4
9 9 8 8 7 6 5 3 2 3 3 4 4 4 4 4 4 4 2 2 1 0 2 3 4 6 7 7 8 9 9 10 10 10 10 10 9 8 7 6 7 8 9 10 11 11 9 7 6 7 8 8 8 8 7 7 6 5 5 4 4 4 4 4 4 5 5 5 6 6 6 6 7 7 7 6 6 6 6 5 5 5 5 4 4 4
9 8 7 6 6 5 4 3 3 3 3 4 4 4 3 3 4 3 2 1 2 3 4 5 6 7 7 7 8 9 9 9 10 10 10 10 9 8 7 7 8 9 10 11 11 10 8 6 6 6 7 7 7 7 7 7 7 6 5 4 3 3 3 4 4 4 4 4 4 4 5 5 5 6 6 6 5 5 5 5 5 5 5 5 4 5
8 7 7 6 6 5 5 4 5 5 5 4 4 4 3 2 1 1 2 2 2 3 4 5 6 6 6 7 8 8 8 8 9 9 10 10 10 9 7 7 8 9 10 11 11 9 7 6 6 6 6 6 7 7 8 9 9 8 7 6 4 4 4 4 4 4 4 4 4 4 4 5 5 5 5 5 5 5 5 5 5 5 5 5 5 5
8 7 6 6 6 6 5 5 6 6 5 5 4 3 2 2 1 1 1 2 2 3 4 5 6 6 5 5 5 6 6 7 9 10 11 11 10 9 7 7 8 9 10 11 10 8 6 6 6 7 7 7 8 8 10 11 11 10 9 8 7 6 6 5 5 5 5 5 4 4 4 5 5 5 5 5 5 5 5 5 5 5 5 5 5 5
7 7 7 7 7 7 6 5 5 5 5 4 3 2 2 2 2 2 2 2 3 4 4 5 5 4 3 3 3 5 6 8 10 11 12 13 11 9 7 7 8 9 10 11 10 9 7 6 6 7 8 9 9 9 10 11 11 11 10 8 7 7 7 7 7 6 6 6 5 5 5 5 5 6 6 6 6 6 6 6 6 6 6 6 6 6
7 6 6 7 8 7 6 6 5 4 3 3 3 3 2 2 2 3 3 3 3 3 3 4 4 3 2 1 3 5 7 9 10 12 13 14 12 9 6 7 8 10 10 10 10 9 8 7 7 8 9 10 10 10 10 11 11 11 10 9 8 7 7 7 7 7 7 7 6 6 6 6 6 6 6 6 6 6 6 6 6 6 6 6 6 6
6 5 5 6 7 7 6 5 5 4 3 3 2 2 2 2 2 3 3 3 3 3 3 3 3 3 3 3 3 6 9 10 11 13 14 14 12 9 6 5 7 9 10 11 10 9 8 8 8 9 10 10 10 10 10 10 11 11 10 9 8 7 7 7 7 7 7 7 7 7 7 7 7 7 7 7 7 7 7 7 7 7 7 7 7 7
6 5 4 5 6 6 6 5 5 4 4 4 4 4 3 2 2 1 1 1 2 3 3 3 4 4 5 6 5 6 9 11 12 13 14 14 12 9 6 5 6 8 10 11 11 10 9 9 9 10 10 10 9 9 10 10 11 11 11 9 8 7 6 6 7 7 7 7 7 7 8 8 8 7 7 8 8 8 8 8 8 8 8 8 8 8
6 5 4 4 5 6 6 6 6 6 6 6 6 5 4 3 3 2 2 1 2 3 4 4 5 5 6 8 8 8 9 11 12 12 13 13 11 9 7 6 7 9 10 11 11 10 10 10 10 11 10 10 9 9 9 11 12 12 11 9 7 6 5 5 6 6 5 6 6 7 7 8 8 8 8 8 8 8 8 8 8 8 8 8 8 8
6 5 5 5 5 5 6 6 6 6 7 7 6 5 5 4 4 3 3 3 3 3 4 5 5 6 7 8 9 10 10 11 11 11 10 10 10 9 8 7 8 9 11 11 11 11 11 12 12 11 10 9 8 9 10 11 12 12 10 7 6 5 5 5 5 4 4 5 5 5 6 7 7 8 8 8 8 8 8 8 8 8 8 8 8 8
5 5 6 5 5 6 6 6 6 6 7 7 6 5 5 5 4 4 5 4 4 4 5 6 6 7 9 10 11 10 9 10 10 9 7 7 8 10 9 8 9 10 11 12 12 12 12 13 12 11 8 7 7 8 10 11 12 11 9 6 5 4 4 4 4 4 5 5 5 6 6 7 7 7 8 8 8 8 8 8 9 9 9 9 9 9
5 6 6 6 6 6 6 6 6 6 6 6 6 6 6 5 5 5 5 5 6 6 7 8 8 9 10 10 9 8 7 7 8 7 5 4 7 10 11 10 10 11 12 12 12 13 14 14 12 9 7 6 7 8 10 11 11 9 7 5 4 4 4 3 3 4 4 5 5 5 6 6 6 7 7 7 8 8 8 8 9 9 9 9 9 10
5 6 7 7 7 7 6 6 6 6 6 6 6 6 6 5 5 5 5 6 6 7 7 8 9 9 9 8 8 8 6 6 7 6 4 4 6 10 12 12 12 12 12 12 13 14 15 14 11 7 5 5 7 9 10 10 9 8 6 5 5 5 5 4 5 5 5 5 5 6 6 6 6 6 7 7 7 8 8 9 9 9 10 10 10 11
5 6 7 7 8 7 7 6 6 6 6 6 6 6 6 5 5 4 5 5 6 6 7 8 9 9 9 9 9 8 6 6 7 6 5 4 6 9 11 12 12 12 12 13 14 15 15 13 9 5 3 4 6 8 9 9 9 8 7 6 6 6 6 6 7 7 7 8 8 8 8 8 8 8 8 8 8 8 9 9 10 10 10 11 11 12
6 6 6 6 7 7 7 7 7 7 7 7 7 7 7 6 6 6 6 6 6 6 7 8 9 9 9 9 8 6 5 5 6 6 6 5 6 8 11 11 11 11 12 14 16 16 15 12 7 3 2 3 5 7 8 9 9 9 8 8 8 8 8 8 8 8 8 8 9 9 9 9 9 9 9 9 10 10 10 10 11 11 12 12 12 13
6 6 6 6 7 7 7 7 8 8 8 8 8 8 8 8 8 8 8 7 6 6 7 8 8 8 7 7 6 5 4 5 5 6 6 6 6 7 9 11 11 11 13 15 17 16 13 9 5 3 3 3 5 6 8 8 8 8 9 9 9 9 9 10 10 9 9 9 8 9 9 10 10 11 11 11 11 11 11 12 12 12 12 13 14 14
7 7 7 7 8 8 8 8 8 8 8 8 7 7 8 9 9 9 9 7 6 6 7 8 7 6 5 5 5 5 5 5 5 6 6 6 5 5 9 10 10 11 13 16 17 15 10 6 4 3 3 4 5 7 8 8 8 8 8 9 9 9 9 9 9 9 9 9 9 9 9 9 10 11 11 12 12 12 12 13 13 13 13 14 15 16
6 7 8 8 8 8 8 8 8 8 7 7 6 6 7 9 10 10 9 7 6 7 8 8 7 6 5 5 6 7 7 6 6 7 7 6 5 6 9 9 9 11 13 15 14 11 7 4 3 3 2 3 5 7 8 9 9 9 9 9 9 9 9 8 8 9 9 10 10 10 10 10 10 10 11 11 12 12 13 13 13 14 14 15 16 18
4 5 5 5 5 6 6 6 6 6 6 6 6 7 8 9 10 10 9 8 8 8 8 8 7 6 6 5 5 5 6 5 6 7 7 6 5 6 8 8 9 10 11 12 9 6 4 2 2 1 1 3 6 8 10 10 10 9 9 9 10 10 9 9 9 9 9 9 10 10 10 10 10 10 10 11 11 12 12 12 13 14 15 16 17 18
3 4 4 4 4 4 5 6 7 8 8 8 8 8 9 10 11 11 10 9 9 10 9 9 8 7 6 4 2 2 3 3 4 5 6 6 5 6 8 7 7 8 9 8 7 4 3 2 1 2 3 7 10 12 12 10 9 8 8 9 10 11 11 11 10 10 10 10 9 9 9 10 10 10 11 11 11 11 11 12 12 13 14 15 17 18
4 4 5 5 5 6 6 8 9 10 10 10 9 9 9 9 10 10 10 10 11 11 11 10 9 8 7 6 5 3 3 3 4 6 6 6 6 7 7 6 6 6 7 6 5 3 2 3 4 7 11 14 15 14 12 9 7 7 8 9 10 11 11 12 12 12 12 12 11 10 9 9 9 9 10 10 10 10 11 11 11 12 13 14 16 16
6 6 6 7 7 8 9 9 10 10 10 10 9 9 8 8 8 8 9 10 11 12 12 11 10 9 9 9 9 8 6 5 6 7 7 6 6 6 6 6 5 5 6 5 5 5 5 7 9 13 16 17 16 14 11 8 7 7 8 8 9 10 11 12 12 13 13 13 12 11 10 9 9 8 8 9 9 9 9 10 10 10 12 13 14 15
7 8 8 9 9 9 10 9 9 9 9 10 10 10 9 8 7 7 8 9 10 12 12 12 11 10 10 9 9 9 8 4 4 5 7 6 6 6 6 6 6 6 6 6 6 7 8 10 12 13 15 16 15 14 11 8 7 7 8 9 10 11 12 12 13 13 12 12 12 11 10 10 9 9 9 9 9 9 9 9 9 10 10 12 13 14
8 9 9 10 10 9 9 8 8 9 9 10 10 10 9 8 8 7 7 8 10 11 12 12 12 11 11 10 9 9 9 6 4 5 6 7 7 7 7 7 7 7 6 6 7 7 8 10 11 12 13 14 14 13 11 9 8 8 9 10 11 12 12 13 13 12 12 11 11 10 10 10 11 11 11 11 11 10 9 9 10 10 10 11 12 13
8 9 9 9 9 9 8 8 8 9 9 10 10 10 9 9 8 8 7 7 8 10 11 12 13 13 13 12 12 11 11 10 8 7 7 8 8 8 7 7 8 8 7 7 7 8 8 10 11 11 11 12 12 12 11 10 10 10 11 11 12 12 12 11 11 11 11 11 11 11 11 11 11 12 12 12 12 11 10 10 10 10 10 11 11 12
8 9 9 9 9 9 9 8 9 9 9 10 10 9 9 9 8 8 8 7 8 8 9 11 12 13 14 14 15 14 14 14 13 12 11 11 11 11 9 9 10 9 8 7 8 8 9 10 10 11 11 10 10 10 11 13 13 14 14 14 13 13 12 10 10 10 10 11 11 11 11 12 12 12 11 11 11 11 11 11 11 11 11 11 11 11
8 9 9 9 9 9 9 9 9 9 9 9 9 8 8 8 8 8 8 8 8 8 9 10 11 12 13 14 14 15 15 15 15 15 15 15 15 15 13 13 13 12 10 9 8 9 9 9 9 9 9 10 10 11 13 14 15 15 16 15 15 14 13 11 10 10 11 11 12 12 11 11 11 11 11 11 11 12 12 13 13 12 12 11 10 10
9 9 9 9 9 8 8 9 9 9 9 8 7 7 7 8 8 9 8 9 9 9 10 11 11 12 12 13 13 14 14 14 14 14 15 16 16 17 17 16 15 13 12 10 9 9 9 9 9 8 9 10 11 12 13 13 14 15 16 16 15 14 12 12 12 12 11 11 12 12 11 11 10 10 11 11 11 12 13 13 13 13 13 13 12 12
9 9 9 9 8 8 8 8 8 8 8 7 7 7 8 9 9 10 10 11 11 11 12 12 13 13 13 13 13 13 12 12 12 12 12 13 14 15 16 16 16 14 12 10 9 9 10 11 11 11 10 11 12 13 13 13 14 14 15 15 14 13 13 14 14 13 12 11 11 12 12 12 11 11 12 12 12 13 13 13 13 13 13 13 14 14
9 9 9 8 8 8 8 8 8 9 9 9 9 9 10 10 11 11 12 13 13 13 13 13 14 14 14 14 13 12 11 10 10 9 9 10 10 11 12 13 14 13 12 11 10 10 11 11 12 12 12 13 13 14 14 14 14 13 13 13 14 16 17 15 14 12 11 11 11 11 12 12 13 13 13 13 13 13 13 13 14 13 13 13 14 15
9 9 8 8 8 8 8 9 9 10 10 10 10 11 11 12 12 13 13 13 13 13 13 12 12 12 12 12 12 11 10 9 8 8 8 7 8 8 9 9 10 11 11 11 11 11 11 12 12 12 13 13 13 14 14 15 14 13 13 14 15 17 16 15 13 11 11 11 12 12 13 14 14 14 14 14 14 13 13 13 13 13 13 13 14 14
10 9 9 9 9 9 10 10 11 11 11 11 12 12 13 13 13 13 13 13 13 13 12 11 10 10 11 12 12 11 9 8 8 8 8 7 7 7 7 7 8 8 9 10 11 11 12 12 12 13 13 13 13 14 15 15 15 14 14 14 14 14 13 13 13 13 13 13 13 13 14 14 15 15 15 15 15 15 14 14 13 13 13 13 14 14
11 11 10 11 11 11 12 12 12 12 12 12 13 13 13 13 13 13 13 13 13 12 10 9 9 9 11 12 13 12 10 8 7 8 8 8 8 8 8 7 7 8 9 10 11 11 11 12 13 13 12 13 14 15 15 16 16 15 15 14 13 13 13 14 15 15 15 14 14 14 14 15 15 15 16 16 15 15 15 15 14 14 13 13 14 14
12 12 12 13 13 13 13 13 13 13 13 13 13 13 12 12 12 12 12 12 12 11 10 8 8 9 10 12 12 12 10 8 7 7 8 9 9 9 8 8 7 7 8 9 9 10 11 12 12 12 12 12 14 15 15 16 16 16 16 15 14 14 15 15 15 15 15 15 15 15 15 14 15 16 17 17 17 16 16 15 15 15 15 14 14 15
11 12 12 13 13 13 14 14 14 13 13 13 13 12 11 11 12 12 13 13 12 11 10 9 9 9 10 10 10 10 9 8 7 7 8 8 9 10 10 9 8 8 8 8 9 9 10 11 12 12 12 13 14 15 16 16 16 17 17 16 15 15 15 15 15 14 14 15 15 15 15 14 15 16 17 17 18 18 17 16 16 16 16 16 15 16
10 11 12 12 13 13 13 12 12 11 11 11 11 11 11 11 12 13 13 13 12 11 11 10 11 11 11 11 10 9 9 8 8 7 8 9 9 10 10 10 9 9 9 9 10 10 11 12 12 13 14 14 15 15 16 16 16 16 16 16 16 15 15 15 15 14 14 14 15 15 15 15 15 16 17 18 18 18 18 17 17 16 16 17 17 17
9 10 11 12 12 12 11 11 10 10 10 11 11 10 10 11 12 13 13 13 13 12 11 12 12 12 13 12 12 11 11 10 10 9 9 9 9 10 10 10 10 10 10 11 11 12 13 14 14 15 16 16 16 16 17 17 17 17 16 16 15 15 15 16 16 15 14 14 14 14 14 14 15 16 17 18 19 19 19 19 18 17 17 17 17 17
10 11 12 12 12 12 11 10 10 10 11 11 11 11 11 11 12 13 13 13 13 13 13 13 13 13 13 13 13 13 12 12 11 11 10 10 9 9 10 10 10 10 10 11 12 13 14 15 16 17 17 18 19 19 20 20 20 19 18 17 16 16 16 16 16 15 15 15 14 14 14 15 15 16 17 18 19 20 20 20 19 18 17 16 16 17
11 12 12 13 13 12 12 11 11 11 11 11 11 12 12 12 13 13 14 14 14 14 14 14 13 13 13 13 13 13 13 13 12 12 11 11 10 10 10 10 10 10 10 11 11 12 13 14 15 17 17 18 19 20 21 22 21 21 20 19 18 17 17 17 17 16 15 15 15 15 15 16 16 16 17 17 18 20 20 20 19 18 17 16 16 16
12 12 13 13 13 13 12 12 12 12 12 12 12 12 12 13 14 14 14 14 14 14 15 14 14 14 13 13 13 13 13 13 13 13 12 11 11 10 10 10 10 10 9 9 9 9 9 10 11 13 15 15 16 17 18 20 20 20 20 20 19 18 18 18 17 17 16 16 16 16 16 16 16 16 16 16 17 18 19 19 19 19 18 17 17 17
Wind_Direction
165 163 177 223 248 252 258 266 263 258 260 271 101 111 122 118 111 103 95 93 95 97 72 23 4 5 23 45 59 72 82 88 94 98 103 107 109 109 105 95 78 57 39 27 18 13 8 4 1 360 1 4 5 6 8 10 14 16 14 14 13 12 10 12 10 11 18 18 10 358 182 186 235 281 283 285 291 292 296 313 318 313 314 316 312 309
168 168 166 188 212 231 259 277 279 269 229 159 128 121 122 114 108 104 99 98 105 118 127 127 324 335 4 35 54 75 96 107 112 116 120 123 123 119 109 90 62 36 20 11 3 356 351 345 338 332 329 326 327 328 326 323 324 332 340 349 354 355 352 348 345 336 318 310 322 308 236 238 251 265 270 275 282 290 300 308 310 310 312 313 315 315
170 173 177 185 196 208 238 275 287 294 124 119 117 120 124 124 122 119 112 109 116 126 134 145 186 273 332 13 33 52 88 118 133 139 144 147 144 135 111 51 13 360 353 348 344 339 335 332 329 325 322 320 319 317 314 309 303 300 299 302 311 321 325 324 321 308 284 279 281 280 263 257 257 262 271 277 280 286 293 302 304 303 302 309 313 313
167 170 181 193 202 217 238 261 263 99 100 100 102 108 117 124 128 128 124 122 127 131 133 144 182 254 299 339 1 14 32 89 156 173 182 191 202 223 271 304 317 322 325 325 324 323 323 322 323 322 321 320 319 317 315 310 305 297 290 284 281 283 287 293 296 292 283 280 279 277 275 268 265 268 278 282 287 291 292 296 300 303 306 309 311 312
162 168 180 190 204 222 243 212 119 108 102 99 98 100 107 118 128 133 133 138 145 150 151 159 194 255 291 323 347 5 21 33 30 327 293 285 283 287 294 300 306 312 316 318 319 319 320 320 320 320 320 320 319 318 316 313 307 301 293 285 277 270 268 272 276 280 282 280 280 280 280 278 274 274 276 279 283 287 289 293 296 299 302 302 302 304
164 172 183 187 198 211 199 126 117 111 102 97 96 98 105 118 130 139 147 157 166 172 173 177 208 266 297 324 351 15 32 35 27 11 355 344 332 323 318 315 314 315 317 318 318 319 319 320 320 320 320 318 317 315 313 310 306 302 296 290 281 272 265 265 267 271 274 274 275 277 278 278 277 276 277 278 280 284 286 292 295 298 300 300 300 300
167 176 183 184 184 159 120 119 116 109 100 98 106 121 136 142 146 155 168 180 188 189 186 180 192 274 309 338 5 26 34 28 18 11 1 348 333 323 317 315 315 315 315 315 316 317 319 320 320 320 318 316 313 311 308 304 300 297 294 291 284 276 267 264 264 265 267 268 270 271 273 274 276 278 279 280 281 284 288 291 294 297 300 300 299 299
163 168 168 165 150 127 119 120 120 118 118 128 152 177 193 196 195 196 204 215 213 199 181 163 154 156 150 14 26 32 20 338 333 328 308 294 293 297 301 305 307 309 312 314 316 319 321 323 322 320 316 313 310 308 304 299 294 290 288 287 284 278 268 263 260 261 261 262 263 264 266 270 274 278 280 282 284 287 291 291 293 295 297 298 298 297
154 155 153 148 138 129 124 126 131 137 143 150 164 178 188 196 203 212 225 230 224 194 176 172 172 173 183 210 247 259 262 269 276 282 285 288 293 297 301 305 309 312 316 319 321 324 325 326 324 320 314 311 310 309 306 299 293 288 285 283 282 277 267 260 256 255 254 254 255 256 259 264 269 274 277 280 284 287 291 292 292 293 293 295 294 292
145 147 148 144 139 135 133 137 142 148 157 165 173 180 181 181 185 190 192 188 180 171 182 191 197 208 230 254 267 273 277 281 286 291 295 299 303 306 309 313 317 321 322 321 321 322 325 325 323 317 312 312 315 316 313 306 299 292 287 284 281 276 267 260 255 252 249 249 251 253 256 260 264 269 274 278 283 286 288 288 289 290 289 289 289 288
143 144 145 144 143 143 141 142 144 152 165 172 181 193 199 192 181 170 159 152 147 151 195 229 243 259 275 281 283 283 284 287 292 299 304 308 310 311 313 313 313 312 309 309 314 319 323 324 320 315 313 318 324 328 327 324 319 313 305 300 296 291 285 275 268 261 256 255 255 257 259 262 265 269 274 278 280 282 283 284 284 285 285 285 285 285
143 145 145 146 146 145 147 149 149 151 161 174 186 196 203 208 204 192 163 135 122 286 291 286 290 296 299 294 289 285 286 289 296 303 311 317 320 320 316 309 300 296 297 306 316 323 326 325 320 317 320 327 333 337 338 339 341 340 335 332 328 324 319 311 300 289 280 273 270 268 268 269 271 274 276 276 277 277 278 279 280 281 281 282 281 281
141 143 144 146 149 150 154 161 163 163 172 183 180 168 163 195 216 226 239 266 306 311 306 302 303 307 307 297 288 284 285 290 299 308 317 326 331 330 322 310 301 300 305 316 325 332 334 332 327 326 329 333 335 334 333 335 338 339 336 330 326 321 317 316 312 306 300 294 287 283 281 279 276 275 275 274 274 274 275 276 276 277 276 276 277 278
139 141 142 146 153 162 170 180 186 188 182 178 167 155 150 155 199 239 246 265 288 298 301 303 308 310 305 290 285 285 288 295 303 312 320 330 336 337 329 314 305 306 314 324 333 341 343 339 333 331 332 330 327 323 322 324 326 326 321 311 298 287 284 288 291 293 293 291 289 285 283 280 278 276 274 274 272 273 273 274 274 272 271 271 273 274
142 145 150 158 166 172 180 186 185 181 176 175 173 164 150 131 127 181 218 248 270 283 291 296 305 308 297 285 286 294 302 309 314 319 324 332 339 342 335 322 313 312 320 329 339 347 349 343 334 328 326 323 319 318 318 319 320 320 317 309 298 287 278 275 276 277 277 278 276 275 277 278 278 276 274 273 272 271 271 271 271 271 271 270 270 270
152 158 169 175 176 176 178 180 175 171 175 190 206 211 190 175 188 213 227 256 277 292 308 320 323 317 298 284 295 310 318 322 323 325 328 333 341 347 339 327 318 317 323 333 343 350 351 344 332 322 319 318 318 317 316 316 317 317 315 310 302 292 282 275 271 269 268 268 268 268 270 272 274 274 273 272 271 270 270 270 270 271 271 271 271 271
159 170 181 180 175 173 176 178 177 177 184 202 226 237 228 223 232 246 257 270 286 302 316 324 325 320 300 283 313 324 326 329 328 327 328 333 341 349 343 329 320 318 323 333 343 349 349 340 328 320 317 318 319 317 314 314 315 316 314 309 302 294 287 279 273 268 264 264 265 266 267 265 267 270 270 270 269 269 269 269 270 270 270 271 271 271
160 170 178 174 169 169 176 181 187 190 186 186 194 206 213 225 241 260 276 287 294 299 298 296 298 297 291 280 306 325 326 328 328 327 327 330 340 351 351 333 320 318 320 330 340 346 344 337 327 321 319 320 319 316 313 312 314 315 314 309 301 293 286 281 277 271 266 263 263 263 263 263 263 263 266 267 267 267 268 268 269 269 270 270 270 269
161 168 172 167 166 169 176 182 186 184 178 177 177 177 174 185 203 227 258 283 286 283 281 282 279 275 276 276 287 306 314 318 322 324 325 327 339 357 2 344 326 318 318 326 335 342 341 335 328 323 320 320 318 314 311 308 311 314 316 311 303 293 286 283 279 274 268 264 262 262 264 263 262 262 262 262 264 266 266 267 268 269 269 268 267 267
165 171 172 167 165 167 172 179 184 185 184 185 185 182 180 185 192 198 210 239 264 272 275 278 278 277 277 280 284 291 300 307 315 320 321 323 338 360 6 353 332 320 317 324 333 339 337 332 327 322 320 319 318 313 307 305 310 316 319 316 310 302 297 292 288 283 276 269 265 264 263 264 263 262 261 259 261 263 265 266 266 266 266 265 264 264
167 173 180 178 172 167 168 175 183 189 193 196 199 199 200 208 215 219 227 239 253 264 271 278 280 282 286 286 286 288 294 302 309 315 316 319 333 352 4 350 332 321 319 324 332 336 334 331 328 325 322 322 318 310 302 305 313 320 321 320 317 316 313 311 308 305 299 292 284 276 271 269 267 265 263 261 260 261 263 263 264 263 263 263 263 263
166 175 182 183 180 174 172 177 186 197 204 210 213 214 216 225 231 237 243 249 257 265 272 277 280 281 281 282 286 291 297 298 299 302 306 308 322 338 355 344 329 321 320 325 331 333 331 330 329 329 328 325 316 306 303 311 320 323 321 318 317 317 317 315 316 314 308 301 294 287 281 276 272 269 267 264 262 261 260 260 260 260 261 261 262 263
169 177 183 185 185 182 182 185 195 206 214 221 224 227 232 239 248 255 260 264 268 270 273 276 278 281 283 288 298 307 307 296 290 289 293 289 311 328 341 339 332 326 324 328 330 330 328 329 331 333 334 328 315 309 312 322 329 330 325 318 310 304 302 299 296 295 293 290 287 284 280 276 273 270 268 266 263 261 259 259 259 259 260 261 263 264
180 186 190 193 194 195 196 198 206 214 223 229 232 236 243 249 258 267 275 277 278 281 286 289 291 294 299 309 318 319 309 290 280 277 276 282 303 318 331 337 335 330 328 329 329 327 327 330 332 335 335 326 315 315 325 336 345 349 346 333 318 307 298 287 279 275 272 268 269 269 269 270 268 266 265 264 262 262 261 261 261 262 263 264 266 268
195 199 202 204 205 207 209 214 220 226 233 238 243 247 250 251 250 252 258 267 274 282 288 292 294 298 307 318 322 318 304 283 273 269 268 280 299 311 326 336 337 331 326 326 326 327 327 331 335 340 337 324 318 323 336 348 358 3 0 353 342 330 318 305 294 286 279 272 267 264 264 264 262 260 260 261 261 261 262 262 263 264 265 266 268 269
209 211 213 212 212 211 215 222 230 239 246 254 261 266 267 263 257 253 252 254 260 270 277 279 281 288 301 309 314 312 299 283 275 273 273 280 293 308 323 335 337 331 323 320 323 327 329 333 341 358 360 336 328 332 342 350 353 353 350 346 341 336 329 322 315 306 297 287 279 273 269 267 265 263 263 264 263 263 263 263 264 265 266 267 268 269
212 212 212 215 217 220 227 235 244 252 260 268 275 280 279 274 268 263 259 256 257 264 271 268 270 279 291 299 307 313 310 293 282 278 279 283 288 303 320 332 334 328 321 318 322 327 332 339 354 16 17 353 342 342 347 348 344 338 332 328 324 322 321 318 317 315 311 303 293 285 277 273 270 268 267 267 267 266 267 267 267 269 270 270 269 268
221 222 224 228 234 240 245 252 257 262 266 271 275 278 277 275 271 266 263 260 259 265 272 269 270 275 284 290 299 307 309 298 282 274 280 284 286 300 317 327 328 324 321 321 324 331 342 356 12 15 6 351 342 342 345 343 337 329 322 317 315 313 313 313 314 315 316 313 308 301 292 284 278 274 271 269 269 268 268 269 270 271 271 271 269 268
231 234 238 242 247 252 256 259 262 265 268 271 271 270 270 271 269 267 265 262 258 261 270 274 274 275 279 284 290 293 293 282 271 271 279 285 288 298 313 320 322 321 324 327 330 337 2 31 41 24 360 340 333 333 333 331 327 322 318 315 315 316 318 319 319 318 316 315 314 310 306 299 292 285 280 276 273 272 271 270 271 271 270 270 270 270
243 246 251 254 256 259 263 268 273 277 279 277 273 269 266 266 267 268 267 259 250 253 264 268 269 269 274 283 289 288 280 265 263 272 283 288 293 301 311 315 317 323 331 338 340 343 359 43 91 114 298 307 314 318 321 321 321 320 320 319 320 322 325 327 326 323 319 316 314 312 309 307 303 298 293 288 284 280 277 275 274 273 272 271 271 271
262 265 268 266 261 258 263 272 281 286 288 285 279 272 266 265 265 264 261 250 242 243 253 257 258 257 261 271 282 288 283 268 273 285 295 297 297 301 309 313 317 323 333 346 349 341 327 325 170 185 266 295 306 313 319 324 328 331 330 325 322 322 325 328 328 326 324 322 318 314 310 307 304 301 298 295 291 288 285 282 279 276 274 273 273 273
253 253 254 253 253 255 262 272 279 285 288 289 289 285 278 271 266 261 254 244 238 238 243 247 248 247 247 252 253 262 288 298 302 302 303 301 299 300 304 307 312 318 325 338 337 318 291 300 291 287 294 303 311 319 329 339 346 345 338 328 320 318 320 323 325 325 325 325 323 319 313 308 304 301 299 297 295 293 290 287 284 280 277 276 276 276
238 240 242 247 254 263 272 278 281 283 285 289 294 296 294 284 273 261 251 242 236 235 237 240 242 242 243 247 251 255 268 290 304 305 303 299 296 294 294 295 299 305 312 316 309 291 278 284 293 300 304 309 316 324 336 349 354 348 335 323 316 313 313 316 318 319 320 320 320 319 317 315 312 309 306 303 300 297 294 291 287 284 281 280 281 282
239 243 249 256 266 274 280 281 280 279 280 284 290 295 296 290 279 266 252 241 235 233 234 237 238 239 241 246 250 250 252 263 286 294 295 294 291 286 284 284 288 296 302 304 300 290 283 283 291 300 306 310 315 321 333 344 346 336 322 312 308 306 307 310 311 312 313 313 314 316 319 321 322 320 317 314 310 306 301 297 292 288 284 283 283 285
245 252 259 267 275 280 281 278 275 272 273 277 283 288 290 287 280 270 259 246 238 234 233 234 236 237 238 243 246 244 239 234 244 266 280 287 288 287 286 283 284 289 296 298 298 295 292 290 294 299 305 310 312 316 328 334 329 315 306 301 300 303 305 309 311 312 313 314 316 318 320 321 320 319 317 316 314 311 307 301 297 292 287 284 283 283
252 259 265 272 278 281 279 276 271 268 269 273 278 281 281 278 274 270 265 257 247 240 236 236 236 237 238 240 243 242 238 235 238 250 265 275 282 287 288 284 284 286 290 293 294 294 294 295 297 299 303 306 308 312 320 322 317 310 307 307 309 311 313 316 318 319 319 318 318 318 317 315 313 310 309 310 310 308 304 300 297 294 291 287 283 281
256 262 267 272 277 279 279 276 271 268 268 272 276 277 273 269 266 266 266 265 260 254 248 243 242 241 242 244 246 248 248 246 245 249 256 264 272 278 283 282 282 283 284 287 289 290 292 295 298 300 300 300 302 306 312 315 316 316 318 321 323 324 326 328 328 324 320 316 314 312 310 307 306 304 305 307 307 307 305 303 303 302 299 293 288 282
257 262 267 271 275 278 278 276 272 270 271 274 275 273 266 262 260 260 261 262 263 263 260 257 254 251 250 250 252 254 255 253 251 250 253 258 264 269 274 276 277 278 278 278 279 282 286 290 294 298 298 297 296 300 305 311 314 316 319 323 324 325 326 329 328 323 318 314 311 310 310 310 310 310 310 311 310 308 306 306 308 309 308 305 298 290
257 263 268 272 275 277 277 275 272 271 272 273 270 264 258 255 253 252 252 252 255 258 261 264 265 265 264 263 262 261 260 259 256 254 254 256 259 263 267 270 272 273 273 272 270 270 273 277 281 286 292 296 299 301 304 308 311 313 316 319 321 322 324 326 325 322 319 318 318 318 319 320 320 318 315 311 308 306 305 305 306 308 309 308 305 299
259 264 269 273 276 276 274 270 268 266 264 261 255 250 246 245 245 246 247 249 252 256 261 266 270 272 272 272 270 268 266 265 263 260 257 256 257 259 262 265 267 268 268 267 264 263 264 267 270 274 280 288 294 299 302 305 307 310 315 317 317 317 319 321 322 322 323 323 323 322 320 318 314 310 305 301 300 300 300 302 303 304 304 304 302 300
259 264 268 271 273 270 266 262 258 256 253 250 245 242 241 242 243 246 249 252 255 259 263 267 270 271 272 271 270 270 269 268 266 262 258 256 255 256 258 261 264 264 262 261 260 260 260 263 267 270 274 280 286 291 294 297 301 306 309 309 307 308 312 316 319 322 323 322 319 316 313 310 306 302 300 298 297 296 295 298 299 299 297 296 295 295
255 258 262 264 263 259 255 252 250 250 249 248 244 242 242 244 246 249 253 256 260 263 267 269 271 272 272 271 269 269 269 269 266 262 259 258 259 260 260 261 262 262 260 258 257 257 259 261 264 267 271 277 283 287 290 294 297 300 300 300 303 307 310 313 318 323 321 318 314 312 311 310 309 309 308 307 305 302 300 299 297 296 294 291 289 288
247 249 251 251 250 249 247 248 248 250 250 249 246 245 246 248 250 253 256 260 264 267 271 272 272 273 275 276 275 273 271 270 267 265 265 267 269 270 269 267 263 260 257 254 254 255 258 260 262 266 270 276 280 283 286 291 295 297 295 297 302 305 307 308 313 318 317 314 312 312 313 313 313 313 311 309 307 306 306 304 301 298 295 293 291 289
243 243 243 243 244 246 248 249 251 253 254 254 252 250 250 250 252 254 257 260 265 268 269 267 267 269 271 274 277 278 277 272 266 265 268 270 272 272 270 268 263 257 254 251 250 252 257 259 261 264 270 275 277 279 282 286 290 292 293 295 295 294 293 298 304 309 310 310 310 310 311 312 311 310 307 305 304 303 303 302 300 299 297 295 293 291
245 244 243 244 246 249 251 254 257 259 260 260 257 254 251 249 250 251 254 258 263 265 263 258 258 261 266 270 274 278 283 279 270 262 262 265 268 268 267 265 262 260 257 255 254 253 255 257 262 267 273 276 276 275 277 281 285 287 289 291 291 289 289 293 297 300 302 305 306 307 308 309 309 308 305 303 302 302 302 301 300 299 297 296 294 292
247 246 247 249 252 255 258 262 264 265 263 260 257 253 248 246 246 248 251 255 259 260 259 253 251 254 259 265 271 276 280 280 273 263 256 256 260 264 267 268 269 268 267 267 266 264 263 263 265 270 275 276 275 274 273 275 278 282 285 288 289 289 289 291 292 295 298 300 302 304 307 308 307 304 302 301 301 302 301 300 300 299 299 297 296 294
251 251 253 256 260 263 266 268 268 266 262 258 253 248 244 242 243 245 248 252 254 256 254 250 248 249 253 257 262 266 268 267 263 256 252 251 251 253 259 265 269 271 271 272 272 272 272 274 273 272 272 272 273 273 273 272 273 275 279 283 287 288 288 288 289 292 295 296 298 301 306 307 304 301 299 300 301 300 300 299 299 299 299 299 297 295
259 258 260 263 266 268 270 269 265 262 258 255 252 247 242 240 241 243 244 247 250 250 249 247 247 248 251 253 256 258 258 258 255 251 249 247 247 249 251 257 261 266 269 271 273 275 277 277 275 271 267 266 267 270 273 273 272 272 274 278 281 283 284 286 289 292 294 295 297 301 304 303 299 297 298 298 297 297 297 298 299 299 299 298 297 296
263 260 261 263 265 265 265 262 258 255 254 254 252 249 244 241 240 240 242 244 246 246 245 244 245 247 251 253 256 258 257 255 253 251 248 245 243 245 247 251 255 260 264 267 271 274 275 276 273 268 263 262 262 263 268 272 274 274 275 275 276 277 280 284 288 292 294 296 299 302 302 298 296 295 295 294 293 294 296 297 298 298 297 297 297 297
265 262 262 262 262 261 259 255 251 248 248 250 250 249 246 242 240 240 242 243 244 245 244 243 243 245 249 253 256 257 256 255 253 250 248 245 242 242 244 246 249 252 257 262 266 270 273 274 272 269 265 263 262 262 264 269 274 277 276 274 274 274 276 280 285 291 295 297 298 299 299 296 295 295 293 291 291 293 295 296 296 297 297 298 297 297
266 265 264 262 260 259 256 252 247 243 243 245 247 247 245 242 240 240 241 242 243 243 243 243 242 243 247 252 255 255 253 252 250 249 247 245 243 242 242 243 243 245 249 256 263 269 273 276 278 278 274 269 264 261 262 266 270 272 272 273 275 276 275 278 283 288 292 293 294 295 295 295 294 293 291 290 291 293 294 295 296 296 297 297 297 296